Terminal Aerodrome Forecast
Issued by NWS Des Moines, IA

Home | Current Version | Previous Version | Text Only | Print | Product List | Glossary On
Versions: 1 2 3 4 5 6 7 8 9 10 11 12 13 14 15 16 17 18 19 20 21 22 23
000
FTUS43 KDMX 242236 AAB
TAFALO
TAF AMD
KALO 242236Z 2423/2518 09013KT 4SM -SN BR OVC005
      TEMPO 2423/2424 1/2SM SN
     FM250300 09014G19KT 2SM -SN BR OVC003
     FM250800 07013G19KT 1SM -SN BR OVC004
     FM251400 35015G22KT 1SM -SN OVC003=

USA.gov is the U.S. government's official web portal to all federal, state and local government web resources and services.